C/2018 Y1 ( Iwamoto )

Japanese version
Home page
Updated on January 5, 2019

---------------------------------------------------------------------

* Profile

Discovery Date December 18, 2018
Magnitude 12 mag
Discoverer Masayuki Iwamoto (Awa, Tokushima, Japan)

* Pictures

* Orbital Elements

T 2019 Feb. 6.59314 TT                                  MPCW
q   1.2804722            (2000.0)            P               Q
                   Peri.  357.94768     -0.85838632     +0.47988560
                   Node   147.20883     +0.47531291     +0.61098901
e   1.0            Incl.  160.43789     +0.19300403     +0.62960483
From 97 observations 2018 Dec. 18-25.

* Finding Charts

* Magnitudes Graph

        m1 = 8.5 + 5 log d + 10.0 log r

---------------------------------------------------------------------

The orbital elements are published on M.P.E.C. 2018-Y69.
The charts are made with StellaNavigator Ver.10 (AstroArts).
The magnitudes graphs are made with Comet for Windows.

---------------------------------------------------------------------

Copyright(C) Seiichi Yoshida (comet@aerith.net). All rights reserved.